COSMOS 1275 DEB, 12663

Orbit data source: Space-Track

COSMOS 1275 DEB, 12663 is space debris in LEO originally from a launch on Thu, 04 Jun 1981 UTC launched from the Plesetsk Missile And Space Complex (PKMTR). Debris objects in space refer to the collection of defunct objects orbiting the Earth. Examples of debris include non-operational satellites, rocket bodies, and fragments generated from explosions, collisions, or faulty payload assembly.

Loading next visibility...
Identifier
12663, 1981-053T
Orbit
LEO
Country
Flag of CISCIS
Related business
Manufacturer
Unknown
Mission
Spacecraft
Bus & Motor
Unknown
Mass
Unknown
Launch date (UTC)
1981-06-04 (44 years ago)
Launch vehicle
Unknown
Launch site
Plesetsk Missile And Space Complex (PKMTR)
Object type
Payload
Rocket body
Debris
Shape & HBR
Unknown shape, 0.2 m
Radar Cross Section
Small (<0.1 m²)

Expand to show TLE details & history
Last TLE update: 1 day ago

TLE from 1 day ago
0 COSMOS 1275 DEB
1 12663U 81053T   25296.45858997  .00000954  00000-0  78560-3 0  9991
2 12663  82.9535 339.5505 0052086 118.7899 307.5020 13.87545430226373
Epoch: 2025-10-23T11:00Z
TLE epoch observation values (Epoch: 2025-10-23T11:00:22.173Z)
Latitude
64.95656°
Longitude
157.59884°
Altitude
925.384 km
Speed
7.407 km/s
True Right ascension
23h 39m 14s
True Declination
64° 49' 39"
Sunlit
Object was in full shadow at epoch
Visualization orbit readout
Latitude
Unknown
Longitude
Unknown
Altitude
Unknown
Speed
Unknown
Apparent Right ascension
Unknown
Apparent Declination
Unknown
Sunlit
N/A
Visualization observer readout
Local Sidereal Time
07:16:48
Azimuth
Unknown
Elevation
Unknown
Doppler factor
Unknown
Orbital elements
Apogee altitude
972.464 km
Perigee altitude
896.288 km
Semi-major axis
7,312.513 km
Eccentricity
0.00521
Inclination
82.9535°
RAAN
339.5505°
Arg. of periapsis
118.7899°
True anomaly
307.02661°
Mean anomaly
307.502°
Eccentric anomaly
307.26449°
Mean motion
3.47091 °/min
Orbital period
103.72 mins
BSTAR
0.0007856
Loading maneuver chart data...
Computing Atmospheric mass density...

Documentation

Showing up to 5 results
|